Presure
148 150 145 137 138 127 126 126 133 122 123 114 147 129 136 138 129 147 125 136 152 123 119 117 122 117 108 121 139 132 128 118 111 121 118 135 118 142 141 143 157 124 118 131 126
128 128 136 147 145 142 133 125 123 128 124 124 118 148 125 140 137 129 140 121 124 125 132 124 116 121 129 119 119 131 111 132 123 111 121 122 134 127 122 142 143 146 112 117 126
134 131 131 118 134 145 145 139 135 126 125 127 125 125 123 137 141 133 132 129 119 142 125 125 124 122 125 123 126 107 120 124 116 122 116 126 127 131 134 128 147 145 122 126 113
125 123 133 121 131 119 147 145 137 132 134 127 130 124 145 119 141 123 136 134 133 123 121 125 121 129 120 125 130 122 116 120 136 132 116 122 116 127 127 137 133 137 137 133 148
130 130 126 126 126 132 134 123 135 146 140 130 130 129 134 141 120 148 144 132 138 134 122 123 126 126 123 130 124 128 127 133 129 123 113 121 114 119 127 126 131 133 136 137 141
187 205 171 132 119 125 129 121 130 122 127 142 139 127 127 132 127 139 126 139 135 125 139 130 100 126 131 120 126 135 114 124 114 120 126 117 124 116 126 125 124 127 131 132 132
189 199 221 220 226 165 133 123 133 117 131 127 138 143 133 138 130 128 141 119 126 141 131 139 133 124 132 130 126 133 135 122 123 118 122 117 118 124 122 127 125 123 127 122 123
170 191 191 188 223 216 225 220 161 130 126 119 127 130 141 141 139 150 133 128 145 116 140 141 134 136 126 126 127 128 106 110 125 118 112 119 116 121 113 117 126 125 127 130 121
166 176 167 178 194 203 218 252 224 260 199 135 127 123 129 137 142 140 142 134 128 149 119 128 143 141 138 128 134 134 131 115 118 114 117 109 127 115 122 123 121 133 122 135 122
159 160 163 168 172 185 194 216 226 235 277 247 230 137 128 126 132 137 143 144 136 132 148 127 129 138 144 138 138 127 131 131 120 122 122 117 131 116 125 123 119 118 135 131 118
162 174 157 159 163 177 186 194 201 204 287 279 246 224 245 127 124 132 134 141 148 140 134 149 139 129 125 143 141 135 136 138 137 131 128 126 133 121 130 122 128 125 113 119 133
159 162 163 179 169 171 165 184 174 180 200 276 282 249 240 242 141 126 125 150 154 149 141 134 145 144 139 130 138 140 130 132 133 133 131 126 133 123 126 129 128 121 127 116 124
157 156 161 177 177 168 198 151 205 196 279 218 293 280 246 236 235 203 133 127 136 154 148 148 140 135 138 136 146 127 143 134 137 135 130 134 124 116 125 129 123 128 130 125 118
144 144 142 181 177 195 176 152 181 145 170 236 230 288 269 251 226 227 235 146 130 133 152 144 148 136 153 148 129 145 146 146 140 137 136 137 140 119 119 125 131 134 131 131 126
173 153 154 148 149 130 146 191 193 210 220 194 315 289 274 257 234 230 234 243 155 130 134 163 133 150 145 140 138 151 133 137 145 141 127 139 132 134 134 134 119 145 132 131 123
172 161 158 155 168 169 198 175 185 150 202 183 201 306 266 265 245 224 212 231 242 164 144 164 130 146 149 149 140 143 144 148 136 140 141 133 138 141 133 143 141 124 122 127 130
145 135 167 141 166 178 187 179 194 193 210 220 275 313 275 262 252 227 217 223 226 243 175 150 135 140 150 154 150 148 139 137 153 154 153 137 133 133 140 147 141 138 146 123 131
167 162 151 173 179 174 180 180 190 199 206 193 236 307 281 258 244 245 219 229 234 230 246 227 153 142 143 139 157 140 148 143 140 121 128 151 141 138 135 128 136 138 138 123 130
167 166 173 177 171 166 170 177 182 193 195 221 189 222 284 264 250 238 218 222 234 239 248 243 255 168 144 140 128 154 150 144 143 140 114 116 152 160 144 141 140 133 144 133 126
167 189 169 158 171 176 158 172 168 189 180 202 216 216 287 264 248 238 234 207 218 231 204 241 252 254 209 155 143 193 132 155 151 148 137 151 133 137 140 143 144 143 142 134 145
160 161 165 155 164 168 175 187 168 191 189 198 205 214 249 274 251 238 229 222 222 219 232 214 246 251 258 256 166 148 141 134 163 154 150 138 134 133 142 148 142 132 144 151 140
158 155 159 167 163 170 172 158 148 182 190 191 204 180 294 282 263 245 226 231 210 217 229 226 225 241 243 261 260 171 156 138 198 163 155 149 144 145 148 133 143 143 149 146 152
168 169 155 154 153 169 161 185 183 169 195 190 200 203 223 257 263 245 239 226 230 213 208 218 225 229 233 246 248 274 191 163 159 142 140 159 158 156 143 124 117 143 136 149 142
155 152 176 166 176 175 171 174 178 169 183 198 201 203 253 264 257 250 229 229 224 219 221 217 221 216 219 234 243 251 272 247 172 148 147 139 176 169 148 120 146 116 142 156 146
167 158 151 154 172 159 178 177 169 181 173 169 214 207 259 257 240 265 248 231 232 222 219 213 222 216 216 226 230 236 240 263 239 178 157 150 163 208 108 154 152 142 141 139 150
171 169 162 176 161 186 173 168 194 194 162 214 212 206 246 248 240 227 242 237 238 224 217 226 230 223 215 216 224 235 225 238 257 261 234 168 148 157 190 159 163 158 148 144 141
163 159 171 172 174 174 163 169 189 192 201 249 215 249 239 239 238 231 256 247 228 234 221 219 212 214 213 221 225 228 234 222 239 250 261 224 180 94 138 91 178 181 161 145 146
Wind_Speed
26 27 27 26 25 25 25 24 25 24 23 15 43 24 35 37 33 39 29 32 39 24 19 16 18 16 15 13 13 13 14 10 5 9 6 13 8 21 20 21 24 20 19 21 23
23 23 25 28 30 31 31 29 29 29 27 26 23 45 25 39 39 34 37 23 26 25 31 25 17 19 22 14 15 17 12 8 10 7 5 8 14 12 17 19 20 24 20 19 20
27 26 27 24 31 34 35 36 36 34 32 32 30 29 28 36 42 39 37 37 23 38 28 28 26 22 21 18 17 14 16 14 13 11 7 5 7 14 17 13 24 22 12 13 19
30 30 33 30 33 28 37 40 40 38 39 37 36 34 44 28 42 27 41 39 40 30 25 30 24 30 21 23 23 20 17 17 15 12 12 10 7 7 10 19 12 17 16 12 27
36 36 36 36 35 36 38 34 39 45 43 39 39 39 41 45 33 51 49 37 44 43 29 29 32 32 28 30 25 25 21 19 18 19 14 13 9 9 10 12 14 16 19 18 21
10 5 26 42 37 40 40 36 41 37 38 46 45 42 42 43 42 47 38 45 42 31 48 42 20 35 36 27 28 34 22 22 20 20 20 15 15 10 11 12 9 10 14 15 13
10 12 12 6 7 36 48 43 46 39 45 42 47 51 48 50 46 45 50 36 38 52 40 52 46 36 41 37 34 34 35 25 25 23 22 18 16 16 12 13 12 8 9 4 5
8 13 12 15 13 13 15 32 48 50 47 43 47 47 53 54 54 59 50 46 58 32 53 56 45 48 36 32 34 37 24 25 31 27 19 22 17 18 11 11 13 13 9 9 5
19 15 24 19 19 18 16 23 29 34 49 56 53 49 51 54 58 57 58 53 49 66 37 44 57 52 47 35 43 40 41 31 32 27 26 20 26 19 19 16 13 17 8 11 4
25 25 27 27 28 26 22 22 22 27 35 45 49 61 57 55 57 58 62 62 56 54 69 46 46 49 57 52 52 32 38 43 38 37 35 28 39 23 25 21 18 14 13 11 8
27 24 33 34 34 31 34 36 33 29 25 37 50 53 50 61 58 61 59 63 67 61 59 73 61 47 39 56 54 49 48 46 45 46 43 40 40 30 32 24 24 21 13 14 13
32 33 35 30 37 41 36 35 33 30 36 27 41 54 58 57 72 64 59 70 73 68 65 61 71 68 56 44 55 59 39 42 44 48 45 42 43 37 35 30 28 23 23 14 16
35 40 39 30 33 29 26 21 30 40 33 31 28 41 58 63 61 67 70 64 66 73 73 71 67 56 61 58 65 43 58 49 50 47 48 50 44 33 35 36 29 29 27 22 17
39 38 36 35 38 32 40 20 45 24 43 35 36 31 44 58 68 66 60 79 68 69 75 69 68 66 81 73 49 66 65 63 56 58 56 55 54 39 34 37 38 36 31 27 23
31 47 48 44 42 22 42 33 33 40 42 47 29 34 39 52 62 66 61 57 86 70 71 83 61 80 72 69 65 74 50 58 62 62 48 56 49 54 54 50 30 43 33 31 26
31 41 45 49 45 46 37 46 35 28 34 37 46 35 38 42 57 69 72 63 57 93 82 77 67 73 76 77 69 71 68 77 65 67 60 58 56 58 55 57 52 39 35 33 33
46 34 38 42 47 41 37 41 38 35 48 52 33 29 36 37 45 65 71 64 66 58 94 82 76 71 74 81 82 76 72 63 74 73 72 67 58 60 61 56 54 54 53 38 37
42 47 54 46 42 43 38 35 41 48 52 30 53 21 30 36 43 45 67 61 58 64 58 72 91 78 77 72 89 71 78 70 68 58 61 77 69 66 59 55 59 58 56 40 38
44 44 48 47 48 45 42 37 39 46 42 59 32 47 25 35 43 49 66 64 54 53 50 58 58 95 84 78 69 84 82 83 76 69 52 55 74 77 75 67 60 59 63 50 40
44 46 45 45 50 49 44 41 35 46 37 56 56 49 25 31 36 44 50 66 64 58 69 53 52 58 84 93 85 98 70 87 83 78 71 81 66 71 71 70 67 65 66 51 60
47 49 47 45 51 51 50 56 39 56 46 58 57 53 33 33 40 44 51 57 58 63 54 68 50 52 55 63 101 87 82 75 95 88 83 77 72 77 77 71 64 56 64 65 60
56 54 55 58 57 56 53 40 39 53 52 54 60 29 24 32 37 45 48 51 65 58 52 57 60 50 60 54 59 105 95 83 100 94 91 89 94 79 75 60 66 62 69 66 66
63 63 59 53 50 66 43 69 64 34 69 57 63 57 55 30 37 39 47 53 52 64 61 52 53 54 55 53 59 50 102 102 94 85 81 98 98 90 76 60 46 67 62 70 65
62 54 69 68 70 74 63 65 66 34 60 72 68 61 42 29 31 44 44 46 53 56 58 63 65 66 70 62 57 56 52 80 106 91 92 85 109 98 86 53 79 49 66 74 69
72 68 49 56 76 54 74 73 51 66 45 48 71 64 35 30 30 42 49 52 56 59 61 64 64 68 70 59 59 61 62 55 83 113 99 101 98 107 52 88 80 73 71 68 73
76 78 74 77 70 77 75 62 80 81 42 78 71 64 37 31 30 31 45 50 54 57 58 59 63 64 70 68 68 60 71 65 62 74 95 111 97 87 93 96 97 86 82 75 71
79 68 81 79 78 82 49 56 83 79 83 57 70 41 35 32 35 32 40 53 54 62 65 66 64 62 67 67 67 62 64 79 69 69 74 103 120 34 76 28 99 102 88 79 75
Wind_Direction
225 224 220 218 221 217 222 227 223 227 216 226 212 207 214 207 210 211 209 212 209 198 196 189 193 189 156 165 205 155 159 179 193 118 128 69 86 69 71 70 69 70 70 60 69
231 225 223 225 222 220 218 221 223 225 227 222 223 214 214 214 209 215 207 218 215 213 197 202 192 202 220 192 172 169 180 158 159 156 137 93 83 75 80 79 75 76 75 68 68
240 239 236 237 225 224 223 220 221 222 225 225 225 222 222 218 214 214 215 216 221 201 211 210 212 204 211 215 211 168 189 180 186 173 173 129 85 88 71 55 82 77 62 59 69
246 248 239 239 235 240 229 223 223 224 222 224 223 225 224 224 221 218 219 216 214 219 220 217 212 216 209 213 216 198 193 194 194 188 190 156 152 111 102 72 56 72 67 58 66
249 245 245 248 246 239 235 240 231 226 225 226 225 226 224 224 226 220 217 224 219 215 219 221 219 219 212 211 211 220 219 212 200 197 205 176 191 156 129 110 78 77 71 56 62
263 309 256 245 249 251 248 247 240 246 238 227 225 230 230 226 224 227 224 225 226 221 218 225 207 219 218 206 209 212 192 204 207 206 194 202 187 193 160 138 127 100 78 73 59
354 16 28 310 343 252 243 246 243 250 242 241 230 226 228 226 227 226 227 224 227 224 229 225 225 221 221 217 209 209 213 207 211 214 208 214 201 194 186 168 152 153 119 134 85
295 359 331 295 360 309 279 269 246 244 244 249 244 240 229 227 227 225 226 222 224 227 229 228 229 225 222 218 214 210 203 208 213 215 211 218 222 216 217 207 183 172 167 158 186
295 316 276 284 320 307 319 318 274 258 246 242 243 245 243 234 228 228 227 225 223 225 228 230 230 228 227 226 225 217 208 212 215 214 216 213 226 225 217 214 219 182 186 160 214
292 287 293 297 299 310 310 310 291 277 265 248 243 239 240 243 240 233 229 226 224 225 226 229 228 232 228 229 231 217 213 214 223 222 224 218 230 216 220 214 215 218 192 185 212
299 320 289 293 298 308 313 309 304 293 293 261 247 243 230 239 242 241 237 230 226 223 226 227 231 227 220 231 230 234 226 217 218 226 224 227 232 223 227 220 209 212 217 206 197
297 303 300 305 299 304 305 314 301 294 293 285 255 243 238 229 234 239 241 230 226 226 224 228 229 230 229 227 232 232 221 225 220 223 225 224 226 224 226 225 222 219 213 222 214
296 298 300 310 310 303 316 311 320 316 313 299 277 252 240 237 229 231 235 239 237 227 226 223 228 232 230 228 231 221 232 227 227 227 228 228 225 218 229 230 225 228 225 218 227
302 306 306 314 310 321 309 297 309 236 310 302 295 253 244 237 235 228 232 233 237 237 228 228 223 227 226 228 224 230 233 231 229 229 226 227 229 227 219 228 233 233 228 225 221
307 296 298 308 311 259 314 315 327 344 345 311 275 240 236 235 232 232 229 231 231 237 236 225 230 225 226 228 229 230 224 232 228 231 224 231 225 230 234 235 215 233 231 229 224
303 297 300 302 306 308 334 314 306 301 334 322 302 242 231 229 230 230 232 229 232 230 234 229 234 228 225 226 230 231 226 229 226 228 228 230 229 229 233 232 235 227 222 227 227
297 311 313 310 308 311 320 314 329 334 347 350 330 246 228 225 226 228 230 231 230 233 228 230 234 231 229 227 228 227 228 226 229 232 230 229 226 228 231 229 232 236 236 220 230
298 296 297 308 312 312 320 315 333 340 347 324 348 257 233 221 223 229 228 232 232 231 233 229 231 230 230 230 227 227 228 229 227 219 219 230 230 230 229 224 229 234 235 220 228
304 306 308 312 312 312 310 319 325 336 338 344 313 342 241 227 220 223 228 230 235 237 238 234 233 227 229 229 231 227 229 229 226 227 229 233 234 235 231 230 226 233 234 234 223
307 321 307 302 311 313 311 311 313 332 314 340 341 340 250 232 227 227 229 230 234 235 229 239 236 232 228 229 231 229 231 229 229 228 228 230 230 230 232 228 229 229 233 230 235
299 303 307 302 309 310 315 319 316 330 329 334 335 333 318 238 231 227 228 232 235 235 239 233 241 233 232 231 230 230 228 231 228 227 226 230 228 230 229 228 228 228 231 234 236
301 301 304 309 309 311 313 308 287 324 323 330 329 300 282 246 236 228 230 230 232 237 244 238 235 232 234 234 232 229 230 228 228 228 228 228 232 231 232 228 229 228 232 231 233
309 306 300 299 304 308 303 314 314 305 322 326 324 323 324 288 238 230 226 228 230 229 231 236 238 234 233 233 231 228 228 230 228 230 231 230 233 231 232 231 219 227 230 231 232
299 298 308 304 305 305 310 311 313 297 318 315 317 317 315 282 256 231 228 228 227 230 232 233 232 232 233 234 235 232 231 225 230 227 229 233 233 228 229 224 228 220 226 231 231
302 299 293 304 301 303 307 306 310 307 313 294 311 312 302 280 267 236 227 228 226 227 227 230 232 229 233 233 231 229 228 231 225 229 228 231 233 228 214 232 227 226 227 223 230
300 299 298 301 299 302 301 304 303 304 281 310 309 310 302 282 264 258 239 231 228 229 233 234 234 234 237 232 233 232 228 230 232 230 226 230 233 229 227 235 235 228 228 226 223
296 295 297 298 299 298 288 297 300 302 303 305 307 296 292 277 264 255 243 236 231 231 229 230 231 233 238 238 237 232 232 228 230 232 231 228 231 212 228 208 231 231 225 227 224